iso_date,epoch_date,Year,Hour,Min,DOY,POS_DOY,Lat,Lon,BP,Ts,Ta,has_bp,has_ts,has_ta,BuoyID,Buoy_Type,Buoy_Owner,Logistics,Hemisphere
2018-07-12T21:01:26Z,1531429286,2018,21,1,193.876,193.876,54.2816,-158.0098,1023.4,10.6,-999.0,yes,yes,no,300234062887800,BD2GI,AOML,WWD_VICTORIA,North
2018-07-12T22:00:28Z,1531432829,2018,22,0,193.917,193.917,54.2842,-158.022,1023.1,10.85,-999.0,yes,yes,no,300234062887800,BD2GI,AOML,WWD_VICTORIA,North
2018-07-12T22:59:31Z,1531436371,2018,23,0,193.958,193.958,54.283,-158.0398,1022.4,10.84,-999.0,yes,yes,no,300234062887800,BD2GI,AOML,WWD_VICTORIA,North
2018-07-13T00:00:00Z,1531440000,2018,0,0,194.0,194.0,54.2814,-158.0596,1021.9,10.82,-999.0,yes,yes,no,300234062887800,BD2GI,AOML,WWD_VICTORIA,North
2018-07-13T01:00:28Z,1531443629,2018,1,0,194.042,194.042,54.279,-158.0802,1020.7,10.83,-999.0,yes,yes,no,300234062887800,BD2GI,AOML,WWD_VICTORIA,North
2018-07-13T01:59:31Z,1531447171,2018,2,0,194.083,194.083,54.2772,-158.106,1020.0,10.82,-999.0,yes,yes,no,300234062887800,BD2GI,AOML,WWD_VICTORIA,North
2018-07-13T03:00:00Z,1531450800,2018,3,0,194.125,194.125,54.2758,-158.1336,1018.7,10.79,-999.0,yes,yes,no,300234062887800,BD2GI,AOML,WWD_VICTORIA,North
2018-07-13T04:00:28Z,1531454429,2018,4,0,194.167,194.167,54.2794,-158.159,1017.5,10.77,-999.0,yes,yes,no,300234062887800,BD2GI,AOML,WWD_VICTORIA,North
2018-07-13T04:59:31Z,1531457971,2018,5,0,194.208,194.208,54.286,-158.181,1016.3,10.76,-999.0,yes,yes,no,300234062887800,BD2GI,AOML,WWD_VICTORIA,North
2018-07-13T06:00:00Z,1531461600,2018,6,0,194.25,194.25,54.292,-158.2012,1015.5,10.73,-999.0,yes,yes,no,300234062887800,BD2GI,AOML,WWD_VICTORIA,North
2018-07-13T07:00:28Z,1531465229,2018,7,0,194.292,194.292,54.2984,-158.221,1014.5,10.67,-999.0,yes,yes,no,300234062887800,BD2GI,AOML,WWD_VICTORIA,North
2018-07-13T07:59:31Z,1531468771,2018,8,0,194.333,194.333,54.306,-158.2404,1014.0,10.64,-999.0,yes,yes,no,300234062887800,BD2GI,AOML,WWD_VICTORIA,North
2018-07-13T09:00:00Z,1531472400,2018,9,0,194.375,194.375,54.3124,-158.255,1013.6,10.58,-999.0,yes,yes,no,300234062887800,BD2GI,AOML,WWD_VICTORIA,North
2018-07-13T10:00:28Z,1531476029,2018,10,0,194.417,194.417,54.3166,-158.2696,1013.4,10.58,-999.0,yes,yes,no,300234062887800,BD2GI,AOML,WWD_VICTORIA,North
2018-07-13T10:59:31Z,1531479571,2018,11,0,194.458,194.458,54.3192,-158.284,1013.8,10.59,-999.0,yes,yes,no,300234062887800,BD2GI,AOML,WWD_VICTORIA,North
2018-07-13T12:00:00Z,1531483200,2018,12,0,194.5,194.5,54.3202,-158.3014,1014.0,10.58,-999.0,yes,yes,no,300234062887800,BD2GI,AOML,WWD_VICTORIA,North
2018-07-13T13:00:28Z,1531486829,2018,13,0,194.542,194.542,54.3182,-158.3198,1014.1,10.51,-999.0,yes,yes,no,300234062887800,BD2GI,AOML,WWD_VICTORIA,North
2018-07-13T13:59:31Z,1531490371,2018,14,0,194.583,194.583,54.3148,-158.3366,1014.0,10.46,-999.0,yes,yes,no,300234062887800,BD2GI,AOML,WWD_VICTORIA,North
2018-07-13T15:00:00Z,1531494000,2018,15,0,194.625,194.625,54.3128,-158.3586,1013.9,10.42,-999.0,yes,yes,no,300234062887800,BD2GI,AOML,WWD_VICTORIA,North
2018-07-13T16:00:28Z,1531497629,2018,16,0,194.667,194.667,54.3102,-158.376,1014.4,10.4,-999.0,yes,yes,no,300234062887800,BD2GI,AOML,WWD_VICTORIA,North
2018-07-13T16:59:31Z,1531501171,2018,17,0,194.708,194.708,54.3072,-158.3956,1014.7,10.31,-999.0,yes,yes,no,300234062887800,BD2GI,AOML,WWD_VICTORIA,North
2018-07-13T18:00:00Z,1531504800,2018,18,0,194.75,194.75,54.302,-158.4136,1015.1,10.36,-999.0,yes,yes,no,300234062887800,BD2GI,AOML,WWD_VICTORIA,North
2018-07-13T19:00:28Z,1531508429,2018,19,0,194.792,194.792,54.2976,-158.4344,1015.9,10.35,-999.0,yes,yes,no,300234062887800,BD2GI,AOML,WWD_VICTORIA,North
2018-07-13T19:59:31Z,1531511971,2018,20,0,194.833,194.833,54.2944,-158.459,1016.1,10.28,-999.0,yes,yes,no,300234062887800,BD2GI,AOML,WWD_VICTORIA,North
2018-07-13T21:00:00Z,1531515600,2018,21,0,194.875,194.875,54.2956,-158.485,1016.5,10.32,-999.0,yes,yes,no,300234062887800,BD2GI,AOML,WWD_VICTORIA,North
2018-07-13T22:00:28Z,1531519229,2018,22,0,194.917,194.917,54.2988,-158.5146,1017.2,10.36,-999.0,yes,yes,no,300234062887800,BD2GI,AOML,WWD_VICTORIA,North
2018-07-13T22:59:31Z,1531522771,2018,23,0,194.958,194.958,54.302,-158.5402,1017.9,10.36,-999.0,yes,yes,no,300234062887800,BD2GI,AOML,WWD_VICTORIA,North
2018-07-14T00:00:00Z,1531526400,2018,0,0,195.0,195.0,54.3072,-158.5674,1018.3,10.42,-999.0,yes,yes,no,300234062887800,BD2GI,AOML,WWD_VICTORIA,North
2018-07-14T01:00:28Z,1531530029,2018,1,0,195.042,195.042,54.3146,-158.5854,1019.0,10.43,-999.0,yes,yes,no,300234062887800,BD2GI,AOML,WWD_VICTORIA,North
2018-07-14T01:59:31Z,1531533571,2018,2,0,195.083,195.083,54.319,-158.6012,1019.5,10.43,-999.0,yes,yes,no,300234062887800,BD2GI,AOML,WWD_VICTORIA,North
2018-07-14T03:00:00Z,1531537200,2018,3,0,195.125,195.125,54.3202,-158.618,1019.9,10.37,-999.0,yes,yes,no,300234062887800,BD2GI,AOML,WWD_VICTORIA,North
2018-07-14T04:00:28Z,1531540829,2018,4,0,195.167,195.167,54.3162,-158.6296,1020.5,10.41,-999.0,yes,yes,no,300234062887800,BD2GI,AOML,WWD_VICTORIA,North
2018-07-14T04:59:31Z,1531544371,2018,5,0,195.208,195.208,54.3098,-158.6376,1020.9,10.41,-999.0,yes,yes,no,300234062887800,BD2GI,AOML,WWD_VICTORIA,North
2018-07-14T06:00:00Z,1531548000,2018,6,0,195.25,195.25,54.3006,-158.6514,1021.3,10.38,-999.0,yes,yes,no,300234062887800,BD2GI,AOML,WWD_VICTORIA,North
2018-07-14T07:00:28Z,1531551629,2018,7,0,195.292,195.292,54.292,-158.67,1021.5,10.34,-999.0,yes,yes,no,300234062887800,BD2GI,AOML,WWD_VICTORIA,North
2018-07-14T07:59:31Z,1531555171,2018,8,0,195.333,195.333,54.2824,-158.6952,1021.8,10.35,-999.0,yes,yes,no,300234062887800,BD2GI,AOML,WWD_VICTORIA,North
2018-07-14T09:00:00Z,1531558800,2018,9,0,195.375,195.375,54.2772,-158.7304,1021.5,10.36,-999.0,yes,yes,no,300234062887800,BD2GI,AOML,WWD_VICTORIA,North
2018-07-14T10:00:28Z,1531562429,2018,10,0,195.417,195.417,54.276,-158.7658,1021.0,10.3,-999.0,yes,yes,no,300234062887800,BD2GI,AOML,WWD_VICTORIA,North
2018-07-14T10:59:31Z,1531565971,2018,11,0,195.458,195.458,54.2778,-158.7972,1020.2,10.28,-999.0,yes,yes,no,300234062887800,BD2GI,AOML,WWD_VICTORIA,North
2018-07-14T12:00:00Z,1531569600,2018,12,0,195.5,195.5,54.2826,-158.8264,1019.1,10.31,-999.0,yes,yes,no,300234062887800,BD2GI,AOML,WWD_VICTORIA,North
2018-07-14T13:00:28Z,1531573229,2018,13,0,195.542,195.542,54.2866,-158.8492,1017.7,10.29,-999.0,yes,yes,no,300234062887800,BD2GI,AOML,WWD_VICTORIA,North
2018-07-14T13:59:31Z,1531576771,2018,14,0,195.583,195.583,54.2886,-158.865,1016.3,10.28,-999.0,yes,yes,no,300234062887800,BD2GI,AOML,WWD_VICTORIA,North
2018-07-14T15:00:00Z,1531580400,2018,15,0,195.625,195.625,54.2884,-158.8826,1015.0,10.24,-999.0,yes,yes,no,300234062887800,BD2GI,AOML,WWD_VICTORIA,North
2018-07-14T16:00:28Z,1531584029,2018,16,0,195.667,195.667,54.2894,-158.8962,1013.7,10.31,-999.0,yes,yes,no,300234062887800,BD2GI,AOML,WWD_VICTORIA,North
2018-07-14T16:59:31Z,1531587571,2018,17,0,195.708,195.708,54.288,-158.9024,1012.4,10.25,-999.0,yes,yes,no,300234062887800,BD2GI,AOML,WWD_VICTORIA,North
2018-07-14T18:00:00Z,1531591200,2018,18,0,195.75,195.75,54.281,-158.906,1011.5,10.26,-999.0,yes,yes,no,300234062887800,BD2GI,AOML,WWD_VICTORIA,North
2018-07-14T19:00:28Z,1531594829,2018,19,0,195.792,195.792,54.272,-158.9088,1011.1,10.31,-999.0,yes,yes,no,300234062887800,BD2GI,AOML,WWD_VICTORIA,North
2018-07-14T19:59:31Z,1531598371,2018,20,0,195.833,195.833,54.2586,-158.9232,1011.0,10.32,-999.0,yes,yes,no,300234062887800,BD2GI,AOML,WWD_VICTORIA,North
2018-07-14T21:00:00Z,1531602000,2018,21,0,195.875,195.875,54.247,-158.9414,1011.5,10.36,-999.0,yes,yes,no,300234062887800,BD2GI,AOML,WWD_VICTORIA,North
2018-07-14T22:00:28Z,1531605629,2018,22,0,195.917,195.917,54.2328,-158.9628,1012.1,10.4,-999.0,yes,yes,no,300234062887800,BD2GI,AOML,WWD_VICTORIA,North
2018-07-14T22:59:31Z,1531609171,2018,23,0,195.958,195.958,54.2218,-158.992,1012.9,10.4,-999.0,yes,yes,no,300234062887800,BD2GI,AOML,WWD_VICTORIA,North
2018-07-15T00:00:00Z,1531612800,2018,0,0,196.0,196.0,54.2144,-159.0228,1013.6,10.41,-999.0,yes,yes,no,300234062887800,BD2GI,AOML,WWD_VICTORIA,North
2018-07-15T01:00:28Z,1531616429,2018,1,0,196.042,196.042,54.211,-159.053,1014.1,10.38,-999.0,yes,yes,no,300234062887800,BD2GI,AOML,WWD_VICTORIA,North
2018-07-15T01:59:31Z,1531619971,2018,2,0,196.083,196.083,54.2064,-159.0816,1014.7,10.43,-999.0,yes,yes,no,300234062887800,BD2GI,AOML,WWD_VICTORIA,North
2018-07-15T03:00:00Z,1531623600,2018,3,0,196.125,196.125,54.204,-159.106,1015.2,10.45,-999.0,yes,yes,no,300234062887800,BD2GI,AOML,WWD_VICTORIA,North
2018-07-15T04:00:28Z,1531627229,2018,4,0,196.167,196.167,54.202,-159.1266,1015.5,10.42,-999.0,yes,yes,no,300234062887800,BD2GI,AOML,WWD_VICTORIA,North
2018-07-15T04:59:31Z,1531630771,2018,5,0,196.208,196.208,54.1994,-159.1344,1015.9,10.42,-999.0,yes,yes,no,300234062887800,BD2GI,AOML,WWD_VICTORIA,North
2018-07-15T06:00:00Z,1531634400,2018,6,0,196.25,196.25,54.194,-159.1416,1016.0,10.44,-999.0,yes,yes,no,300234062887800,BD2GI,AOML,WWD_VICTORIA,North
2018-07-15T07:00:28Z,1531638029,2018,7,0,196.292,196.292,54.1844,-159.1452,1016.1,10.43,-999.0,yes,yes,no,300234062887800,BD2GI,AOML,WWD_VICTORIA,North
2018-07-15T07:59:31Z,1531641571,2018,8,0,196.333,196.333,54.1712,-159.152,1016.4,10.42,-999.0,yes,yes,no,300234062887800,BD2GI,AOML,WWD_VICTORIA,North
2018-07-15T09:00:00Z,1531645200,2018,9,0,196.375,196.375,54.1584,-159.1662,1016.5,10.43,-999.0,yes,yes,no,300234062887800,BD2GI,AOML,WWD_VICTORIA,North
2018-07-15T10:00:28Z,1531648829,2018,10,0,196.417,196.417,54.1474,-159.1838,1016.4,10.43,-999.0,yes,yes,no,300234062887800,BD2GI,AOML,WWD_VICTORIA,North
2018-07-15T10:59:31Z,1531652371,2018,11,0,196.458,196.458,54.1372,-159.2058,1016.0,10.41,-999.0,yes,yes,no,300234062887800,BD2GI,AOML,WWD_VICTORIA,North
2018-07-15T12:00:00Z,1531656000,2018,12,0,196.5,196.5,54.1284,-159.2276,1015.8,10.42,-999.0,yes,yes,no,300234062887800,BD2GI,AOML,WWD_VICTORIA,North
2018-07-15T13:00:28Z,1531659629,2018,13,0,196.542,196.542,54.118,-159.2438,1015.4,10.37,-999.0,yes,yes,no,300234062887800,BD2GI,AOML,WWD_VICTORIA,North
2018-07-15T13:59:31Z,1531663171,2018,14,0,196.583,196.583,54.1064,-159.2682,1015.1,10.43,-999.0,yes,yes,no,300234062887800,BD2GI,AOML,WWD_VICTORIA,North
2018-07-15T15:00:00Z,1531666800,2018,15,0,196.625,196.625,54.0968,-159.2954,1015.2,10.37,-999.0,yes,yes,no,300234062887800,BD2GI,AOML,WWD_VICTORIA,North
2018-07-15T16:00:28Z,1531670429,2018,16,0,196.667,196.667,54.0896,-159.3216,1015.4,10.44,-999.0,yes,yes,no,300234062887800,BD2GI,AOML,WWD_VICTORIA,North
2018-07-15T16:59:31Z,1531673971,2018,17,0,196.708,196.708,54.0836,-159.3386,1015.6,10.43,-999.0,yes,yes,no,300234062887800,BD2GI,AOML,WWD_VICTORIA,North
2018-07-15T18:00:00Z,1531677600,2018,18,0,196.75,196.75,54.0776,-159.3528,1015.9,10.43,-999.0,yes,yes,no,300234062887800,BD2GI,AOML,WWD_VICTORIA,North
2018-07-15T19:00:28Z,1531681229,2018,19,0,196.792,196.792,54.0718,-159.3644,1016.4,10.46,-999.0,yes,yes,no,300234062887800,BD2GI,AOML,WWD_VICTORIA,North
2018-07-15T19:59:31Z,1531684771,2018,20,0,196.833,196.833,54.0648,-159.3728,1016.6,10.54,-999.0,yes,yes,no,300234062887800,BD2GI,AOML,WWD_VICTORIA,North
2018-07-15T21:00:00Z,1531688400,2018,21,0,196.875,196.875,54.0584,-159.3846,1016.9,10.65,-999.0,yes,yes,no,300234062887800,BD2GI,AOML,WWD_VICTORIA,North
2018-07-15T22:00:28Z,1531692029,2018,22,0,196.917,196.917,54.0544,-159.3938,1017.4,10.77,-999.0,yes,yes,no,300234062887800,BD2GI,AOML,WWD_VICTORIA,North
2018-07-15T22:59:31Z,1531695571,2018,23,0,196.958,196.958,54.0496,-159.4004,1017.6,10.84,-999.0,yes,yes,no,300234062887800,BD2GI,AOML,WWD_VICTORIA,North
2018-07-16T00:00:00Z,1531699200,2018,0,0,197.0,197.0,54.0402,-159.409,1017.8,11.0,-999.0,yes,yes,no,300234062887800,BD2GI,AOML,WWD_VICTORIA,North
2018-07-16T01:00:28Z,1531702829,2018,1,0,197.042,197.042,54.0296,-159.4168,1018.1,11.11,-999.0,yes,yes,no,300234062887800,BD2GI,AOML,WWD_VICTORIA,North
2018-07-16T01:59:31Z,1531706371,2018,2,0,197.083,197.083,54.0154,-159.4286,1018.3,11.2,-999.0,yes,yes,no,300234062887800,BD2GI,AOML,WWD_VICTORIA,North
2018-07-16T03:00:00Z,1531710000,2018,3,0,197.125,197.125,54.0014,-159.4416,1018.8,11.24,-999.0,yes,yes,no,300234062887800,BD2GI,AOML,WWD_VICTORIA,North
2018-07-16T04:00:28Z,1531713629,2018,4,0,197.167,197.167,53.9856,-159.4646,1019.1,11.27,-999.0,yes,yes,no,300234062887800,BD2GI,AOML,WWD_VICTORIA,North
2018-07-16T04:59:31Z,1531717171,2018,5,0,197.208,197.208,53.9742,-159.4908,1019.8,11.26,-999.0,yes,yes,no,300234062887800,BD2GI,AOML,WWD_VICTORIA,North
2018-07-16T06:00:00Z,1531720800,2018,6,0,197.25,197.25,53.9652,-159.518,1020.3,11.24,-999.0,yes,yes,no,300234062887800,BD2GI,AOML,WWD_VICTORIA,North
2018-07-16T07:00:28Z,1531724429,2018,7,0,197.292,197.292,53.96,-159.5432,1020.5,11.16,-999.0,yes,yes,no,300234062887800,BD2GI,AOML,WWD_VICTORIA,North
2018-07-16T07:59:31Z,1531727971,2018,8,0,197.333,197.333,53.958,-159.564,1021.1,11.1,-999.0,yes,yes,no,300234062887800,BD2GI,AOML,WWD_VICTORIA,North
2018-07-16T09:00:00Z,1531731600,2018,9,0,197.375,197.375,53.9588,-159.582,1021.3,11.13,-999.0,yes,yes,no,300234062887800,BD2GI,AOML,WWD_VICTORIA,North
2018-07-16T10:00:28Z,1531735229,2018,10,0,197.417,197.417,53.9616,-159.5918,1021.1,10.95,-999.0,yes,yes,no,300234062887800,BD2GI,AOML,WWD_VICTORIA,North
2018-07-16T10:59:31Z,1531738771,2018,11,0,197.458,197.458,53.9618,-159.5932,1021.2,10.81,-999.0,yes,yes,no,300234062887800,BD2GI,AOML,WWD_VICTORIA,North
2018-07-16T12:00:00Z,1531742400,2018,12,0,197.5,197.5,53.9592,-159.5892,1021.3,10.77,-999.0,yes,yes,no,300234062887800,BD2GI,AOML,WWD_VICTORIA,North
2018-07-16T13:00:28Z,1531746029,2018,13,0,197.542,197.542,53.9512,-159.588,1021.3,10.75,-999.0,yes,yes,no,300234062887800,BD2GI,AOML,WWD_VICTORIA,North
2018-07-16T13:59:31Z,1531749571,2018,14,0,197.583,197.583,53.9384,-159.5946,1021.2,10.75,-999.0,yes,yes,no,300234062887800,BD2GI,AOML,WWD_VICTORIA,North
2018-07-16T15:00:00Z,1531753200,2018,15,0,197.625,197.625,53.9236,-159.6036,1021.8,10.74,-999.0,yes,yes,no,300234062887800,BD2GI,AOML,WWD_VICTORIA,North
2018-07-16T16:00:28Z,1531756829,2018,16,0,197.667,197.667,53.9088,-159.6222,1022.2,10.68,-999.0,yes,yes,no,300234062887800,BD2GI,AOML,WWD_VICTORIA,North
2018-07-16T16:59:31Z,1531760371,2018,17,0,197.708,197.708,53.898,-159.6422,1022.7,10.72,-999.0,yes,yes,no,300234062887800,BD2GI,AOML,WWD_VICTORIA,North
2018-07-16T18:00:00Z,1531764000,2018,18,0,197.75,197.75,53.8874,-159.6636,1022.7,10.63,-999.0,yes,yes,no,300234062887800,BD2GI,AOML,WWD_VICTORIA,North
2018-07-16T19:00:28Z,1531767629,2018,19,0,197.792,197.792,53.8838,-159.6858,1023.1,10.7,-999.0,yes,yes,no,300234062887800,BD2GI,AOML,WWD_VICTORIA,North
2018-07-16T19:59:31Z,1531771171,2018,20,0,197.833,197.833,53.8828,-159.7016,1023.2,10.7,-999.0,yes,yes,no,300234062887800,BD2GI,AOML,WWD_VICTORIA,North
2018-07-16T21:00:00Z,1531774800,2018,21,0,197.875,197.875,53.8834,-159.711,1023.5,10.69,-999.0,yes,yes,no,300234062887800,BD2GI,AOML,WWD_VICTORIA,North
2018-07-16T22:00:28Z,1531778429,2018,22,0,197.917,197.917,53.8844,-159.7148,1023.8,10.68,-999.0,yes,yes,no,300234062887800,BD2GI,AOML,WWD_VICTORIA,North
2018-07-16T22:59:31Z,1531781971,2018,23,0,197.958,197.958,53.883,-159.7186,1023.8,10.7,-999.0,yes,yes,no,300234062887800,BD2GI,AOML,WWD_VICTORIA,North
2018-07-17T00:00:00Z,1531785600,2018,0,0,198.0,198.0,53.879,-159.7228,1023.6,10.72,-999.0,yes,yes,no,300234062887800,BD2GI,AOML,WWD_VICTORIA,North
2018-07-17T01:00:28Z,1531789229,2018,1,0,198.042,198.042,53.8748,-159.7288,1023.5,10.73,-999.0,yes,yes,no,300234062887800,BD2GI,AOML,WWD_VICTORIA,North
2018-07-17T01:59:31Z,1531792771,2018,2,0,198.083,198.083,53.87,-159.7378,1023.6,10.7,-999.0,yes,yes,no,300234062887800,BD2GI,AOML,WWD_VICTORIA,North
2018-07-17T03:00:00Z,1531796400,2018,3,0,198.125,198.125,53.8652,-159.7522,1023.5,10.7,-999.0,yes,yes,no,300234062887800,BD2GI,AOML,WWD_VICTORIA,North
2018-07-17T04:00:28Z,1531800029,2018,4,0,198.167,198.167,53.862,-159.7658,1023.5,10.7,-999.0,yes,yes,no,300234062887800,BD2GI,AOML,WWD_VICTORIA,North
2018-07-17T04:59:31Z,1531803571,2018,5,0,198.208,198.208,53.8596,-159.7768,1023.7,10.67,-999.0,yes,yes,no,300234062887800,BD2GI,AOML,WWD_VICTORIA,North
2018-07-17T06:00:00Z,1531807200,2018,6,0,198.25,198.25,53.8558,-159.783,1023.7,10.74,-999.0,yes,yes,no,300234062887800,BD2GI,AOML,WWD_VICTORIA,North
2018-07-17T07:00:28Z,1531810829,2018,7,0,198.292,198.292,53.8502,-159.788,1024.0,10.69,-999.0,yes,yes,no,300234062887800,BD2GI,AOML,WWD_VICTORIA,North
2018-07-17T07:59:31Z,1531814371,2018,8,0,198.333,198.333,53.8432,-159.7934,1024.4,10.64,-999.0,yes,yes,no,300234062887800,BD2GI,AOML,WWD_VICTORIA,North
2018-07-17T09:00:00Z,1531818000,2018,9,0,198.375,198.375,53.834,-159.8002,1024.3,10.68,-999.0,yes,yes,no,300234062887800,BD2GI,AOML,WWD_VICTORIA,North
2018-07-17T10:00:28Z,1531821629,2018,10,0,198.417,198.417,53.8266,-159.81,1024.3,10.67,-999.0,yes,yes,no,300234062887800,BD2GI,AOML,WWD_VICTORIA,North
2018-07-17T10:59:31Z,1531825171,2018,11,0,198.458,198.458,53.8198,-159.8222,1024.3,10.69,-999.0,yes,yes,no,300234062887800,BD2GI,AOML,WWD_VICTORIA,North
2018-07-17T12:00:00Z,1531828800,2018,12,0,198.5,198.5,53.8168,-159.8378,1024.1,10.63,-999.0,yes,yes,no,300234062887800,BD2GI,AOML,WWD_VICTORIA,North
2018-07-17T13:00:28Z,1531832429,2018,13,0,198.542,198.542,53.8162,-159.8554,1023.9,10.62,-999.0,yes,yes,no,300234062887800,BD2GI,AOML,WWD_VICTORIA,North
2018-07-17T13:59:31Z,1531835971,2018,14,0,198.583,198.583,53.8162,-159.871,1023.9,10.67,-999.0,yes,yes,no,300234062887800,BD2GI,AOML,WWD_VICTORIA,North
2018-07-17T15:00:00Z,1531839600,2018,15,0,198.625,198.625,53.8198,-159.8846,1024.0,10.62,-999.0,yes,yes,no,300234062887800,BD2GI,AOML,WWD_VICTORIA,North
2018-07-17T16:00:28Z,1531843229,2018,16,0,198.667,198.667,53.8236,-159.895,1024.0,10.67,-999.0,yes,yes,no,300234062887800,BD2GI,AOML,WWD_VICTORIA,North
2018-07-17T16:59:31Z,1531846771,2018,17,0,198.708,198.708,53.8254,-159.8976,1024.2,10.66,-999.0,yes,yes,no,300234062887800,BD2GI,AOML,WWD_VICTORIA,North
2018-07-17T18:00:00Z,1531850400,2018,18,0,198.75,198.75,53.8248,-159.896,1024.4,10.68,-999.0,yes,yes,no,300234062887800,BD2GI,AOML,WWD_VICTORIA,North
2018-07-17T19:00:28Z,1531854029,2018,19,0,198.792,198.792,53.8218,-159.8914,1024.3,10.63,-999.0,yes,yes,no,300234062887800,BD2GI,AOML,WWD_VICTORIA,North
2018-07-17T19:59:31Z,1531857571,2018,20,0,198.833,198.833,53.8162,-159.887,1024.2,10.66,-999.0,yes,yes,no,300234062887800,BD2GI,AOML,WWD_VICTORIA,North
2018-07-17T21:00:00Z,1531861200,2018,21,0,198.875,198.875,53.8098,-159.883,1024.2,10.66,-999.0,yes,yes,no,300234062887800,BD2GI,AOML,WWD_VICTORIA,North
2018-07-17T22:00:28Z,1531864829,2018,22,0,198.917,198.917,53.8002,-159.8802,1024.2,10.63,-999.0,yes,yes,no,300234062887800,BD2GI,AOML,WWD_VICTORIA,North
2018-07-17T22:59:31Z,1531868371,2018,23,0,198.958,198.958,53.7898,-159.8842,1023.9,10.67,-999.0,yes,yes,no,300234062887800,BD2GI,AOML,WWD_VICTORIA,North
2018-07-18T00:00:00Z,1531872000,2018,0,0,199.0,199.0,53.7814,-159.899,1023.8,10.59,-999.0,yes,yes,no,300234062887800,BD2GI,AOML,WWD_VICTORIA,North
2018-07-18T01:00:28Z,1531875629,2018,1,0,199.042,199.042,53.7774,-159.9188,1023.4,10.65,-999.0,yes,yes,no,300234062887800,BD2GI,AOML,WWD_VICTORIA,North
2018-07-18T01:59:31Z,1531879171,2018,2,0,199.083,199.083,53.7786,-159.9346,1023.2,10.61,-999.0,yes,yes,no,300234062887800,BD2GI,AOML,WWD_VICTORIA,North
2018-07-18T03:00:00Z,1531882800,2018,3,0,199.125,199.125,53.7814,-159.9468,1023.1,10.56,-999.0,yes,yes,no,300234062887800,BD2GI,AOML,WWD_VICTORIA,North
2018-07-18T04:00:28Z,1531886429,2018,4,0,199.167,199.167,53.7868,-159.956,1022.8,10.6,-999.0,yes,yes,no,300234062887800,BD2GI,AOML,WWD_VICTORIA,North
2018-07-18T04:59:31Z,1531889971,2018,5,0,199.208,199.208,53.7904,-159.9628,1022.6,10.6,-999.0,yes,yes,no,300234062887800,BD2GI,AOML,WWD_VICTORIA,North
2018-07-18T06:00:00Z,1531893600,2018,6,0,199.25,199.25,53.7928,-159.9654,1022.4,10.59,-999.0,yes,yes,no,300234062887800,BD2GI,AOML,WWD_VICTORIA,North
2018-07-18T07:00:28Z,1531897229,2018,7,0,199.292,199.292,53.7952,-159.9632,1022.2,10.69,-999.0,yes,yes,no,300234062887800,BD2GI,AOML,WWD_VICTORIA,North
2018-07-18T07:59:31Z,1531900771,2018,8,0,199.333,199.333,53.7966,-159.9572,1022.3,10.62,-999.0,yes,yes,no,300234062887800,BD2GI,AOML,WWD_VICTORIA,North
2018-07-18T09:00:00Z,1531904400,2018,9,0,199.375,199.375,53.7946,-159.9506,1022.3,10.66,-999.0,yes,yes,no,300234062887800,BD2GI,AOML,WWD_VICTORIA,North
2018-07-18T10:00:28Z,1531908029,2018,10,0,199.417,199.417,53.789,-159.9454,1022.1,10.66,-999.0,yes,yes,no,300234062887800,BD2GI,AOML,WWD_VICTORIA,North
2018-07-18T10:59:31Z,1531911571,2018,11,0,199.458,199.458,53.7806,-159.9402,1022.0,10.58,-999.0,yes,yes,no,300234062887800,BD2GI,AOML,WWD_VICTORIA,North
2018-07-18T12:00:00Z,1531915200,2018,12,0,199.5,199.5,53.7726,-159.942,1021.6,10.6,-999.0,yes,yes,no,300234062887800,BD2GI,AOML,WWD_VICTORIA,North
2018-07-18T13:00:28Z,1531918829,2018,13,0,199.542,199.542,53.7678,-159.9488,1021.2,10.53,-999.0,yes,yes,no,300234062887800,BD2GI,AOML,WWD_VICTORIA,North
2018-07-18T13:59:31Z,1531922371,2018,14,0,199.583,199.583,53.7662,-159.9596,1020.8,10.54,-999.0,yes,yes,no,300234062887800,BD2GI,AOML,WWD_VICTORIA,North
2018-07-18T15:00:00Z,1531926000,2018,15,0,199.625,199.625,53.7654,-159.973,1020.6,10.52,-999.0,yes,yes,no,300234062887800,BD2GI,AOML,WWD_VICTORIA,North
2018-07-18T16:00:28Z,1531929629,2018,16,0,199.667,199.667,53.7662,-159.9882,1020.2,10.51,-999.0,yes,yes,no,300234062887800,BD2GI,AOML,WWD_VICTORIA,North
2018-07-18T16:59:31Z,1531933171,2018,17,0,199.708,199.708,53.7716,-159.9994,1020.1,10.5,-999.0,yes,yes,no,300234062887800,BD2GI,AOML,WWD_VICTORIA,North
2018-07-18T18:00:00Z,1531936800,2018,18,0,199.75,199.75,53.7782,-160.0018,1020.0,10.53,-999.0,yes,yes,no,300234062887800,BD2GI,AOML,WWD_VICTORIA,North
2018-07-18T19:00:28Z,1531940429,2018,19,0,199.792,199.792,53.785,-160.0004,1020.0,10.56,-999.0,yes,yes,no,300234062887800,BD2GI,AOML,WWD_VICTORIA,North
2018-07-18T19:59:31Z,1531943971,2018,20,0,199.833,199.833,53.79,-159.993,1020.0,10.53,-999.0,yes,yes,no,300234062887800,BD2GI,AOML,WWD_VICTORIA,North
2018-07-18T21:00:00Z,1531947600,2018,21,0,199.875,199.875,53.7924,-159.9838,1020.0,10.53,-999.0,yes,yes,no,300234062887800,BD2GI,AOML,WWD_VICTORIA,North
2018-07-18T22:00:28Z,1531951229,2018,22,0,199.917,199.917,53.7904,-159.978,1019.9,10.56,-999.0,yes,yes,no,300234062887800,BD2GI,AOML,WWD_VICTORIA,North
2018-07-18T22:59:31Z,1531954771,2018,23,0,199.958,199.958,53.7874,-159.972,1019.8,10.6,-999.0,yes,yes,no,300234062887800,BD2GI,AOML,WWD_VICTORIA,North
2018-07-19T00:00:00Z,1531958400,2018,0,0,200.0,200.0,53.783,-159.9698,1019.4,10.6,-999.0,yes,yes,no,300234062887800,BD2GI,AOML,WWD_VICTORIA,North
2018-07-19T01:00:28Z,1531962029,2018,1,0,200.042,200.042,53.779,-159.9728,1019.0,10.61,-999.0,yes,yes,no,300234062887800,BD2GI,AOML,WWD_VICTORIA,North
2018-07-19T01:59:31Z,1531965571,2018,2,0,200.083,200.083,53.7766,-159.9832,1018.8,10.62,-999.0,yes,yes,no,300234062887800,BD2GI,AOML,WWD_VICTORIA,North
2018-07-19T03:00:00Z,1531969200,2018,3,0,200.125,200.125,53.777,-159.9938,1018.4,10.59,-999.0,yes,yes,no,300234062887800,BD2GI,AOML,WWD_VICTORIA,North
2018-07-19T04:00:28Z,1531972829,2018,4,0,200.167,200.167,53.7796,-160.008,1018.1,10.59,-999.0,yes,yes,no,300234062887800,BD2GI,AOML,WWD_VICTORIA,North
2018-07-19T04:59:31Z,1531976371,2018,5,0,200.208,200.208,53.7844,-160.0202,1018.1,10.59,-999.0,yes,yes,no,300234062887800,BD2GI,AOML,WWD_VICTORIA,North
2018-07-19T06:00:00Z,1531980000,2018,6,0,200.25,200.25,53.7888,-160.0258,1018.1,10.59,-999.0,yes,yes,no,300234062887800,BD2GI,AOML,WWD_VICTORIA,North
2018-07-19T07:00:28Z,1531983629,2018,7,0,200.292,200.292,53.7954,-160.0314,1018.3,10.6,-999.0,yes,yes,no,300234062887800,BD2GI,AOML,WWD_VICTORIA,North
2018-07-19T07:59:31Z,1531987171,2018,8,0,200.333,200.333,53.8008,-160.0374,1018.4,10.58,-999.0,yes,yes,no,300234062887800,BD2GI,AOML,WWD_VICTORIA,North
2018-07-19T09:00:00Z,1531990800,2018,9,0,200.375,200.375,53.8044,-160.0388,1018.5,10.59,-999.0,yes,yes,no,300234062887800,BD2GI,AOML,WWD_VICTORIA,North